Station: Tasman Island  

  Atmospheric Gas Attenuation - ITU Rec 676-11   ----------------- dB/100km -----------------
Date Time Temp RH % AH g/m3 Dew Point Wind Direction Speed kph Gust kph Barometer mB Rainfall Since 9am 24GHz 47GHz 76GHz 122GHz 134GHz 241GHz
31/08 18:10 10.9 75 7.46 6.6 7 15 1022.8 0 17.3 25.2 37.0 96.9 87.5 299.9
31/08 18:00 11.2 66 6.69 5.1 11 17 1022.9 0 15.6 23.9 33.9 88.4 77.2 263.7
31/08 17:50 11.2 67 6.79 5.3 7 19 1022.9 0 15.8 24.1 34.3 89.5 78.5 268.2
31/08 17:40 11.1 71 7.15 6 17 20 1022.9 0 16.6 24.7 35.7 93.4 83.2 284.9
31/08 17:30 11.3 80 8.16 8 17 22 1022.9 0 18.8 26.3 39.7 104.0 96.4 331.2
31/08 17:20 11.3 75 7.65 7 15 22 1022.9 0 17.7 25.4 37.6 98.5 89.6 307.2
31/08 17:10 11.4 68 6.98 5.7 13 22 1022.9 0 16.2 24.3 34.9 91.2 80.7 276.1
31/08 17:00 11.4 66 6.78 5.3 17 22 1022.9 0 15.8 24.0 34.1 89.1 78.1 267.1
31/08 16:50 11.2 67 6.79 5.3 17 22 1023 0 15.8 24.1 34.3 89.5 78.5 268.2
31/08 16:40 11.1 73 7.35 6.5 17 22 1023.1 0 17.0 25.0 36.5 95.5 85.9 294.2
31/08 16:30 11.1 76 7.66 7 17 20 1023.1 0 17.7 25.5 37.8 98.8 90.0 308.5
31/08 16:20 11.4 76 7.8 7.3 15 20 1023.1 0 18.0 25.7 38.2 100.0 91.5 313.9
31/08 16:10 11.4 76 7.8 7.3 15 20 1023.2 0 18.0 25.7 38.2 100.0 91.5 313.9
31/08 16:00 11.9 75 7.94 7.6 13 20 1023.3 0 18.3 25.8 38.5 100.9 92.8 318.5
31/08 15:50 12.4 81 8.85 9.2 13 19 1023.3 0 20.2 27.1 42.0 110.2 104.4 359.3
31/08 15:40 12.8 74 8.29 8.3 0 11 1023.4 0 19.0 26.1 39.5 103.5 96.4 331.1
31/08 15:30 13 69 7.83 7.5 0 0 1023.5 0 18.0 25.3 37.6 98.3 90.1 309.1
31/08 15:20 13.1 64 7.3 6.5 0 0 1023.6 0 16.8 24.4 35.4 92.7 83.1 284.7
31/08 15:10 13.6 66 7.77 7.4 0 0 1023.6 0 17.8 25.0 37.1 97.0 88.6 304.0
31/08 15:00 13.4 62 7.21 6.3 0 0 1023.7 0 16.6 24.2 35.0 91.4 81.6 279.6
31/08 14:50 14.1 56 6.8 5.5 0 0 1023.6 0 15.7 23.4 33.1 86.4 75.8 259.2
31/08 14:40 14.1 55 6.68 5.2 0 0 1023.7 0 15.5 23.2 32.7 85.2 74.3 254.1
31/08 14:30 13.8 60 7.15 6.2 0 0 1023.8 0 16.5 24.0 34.6 90.3 80.5 275.6
31/08 14:20 13.6 63 7.41 6.7 0 0 1023.9 0 17.1 24.5 35.7 93.2 84.0 287.9
31/08 14:10 13.4 66 7.67 7.2 0 0 1024.1 0 17.6 24.9 36.8 96.2 87.6 300.4
31/08 14:00 14 59 7.12 6.1 0 0 1023.9 0 16.4 23.9 34.4 89.8 79.9 273.6
31/08 13:50 15.2 53 6.88 5.7 0 0 1024.1 0 15.9 23.2 33.0 86.1 75.8 259.2
31/08 13:40 14.9 54 6.88 5.7 0 0 1024.2 0 15.9 23.3 33.1 86.4 76.1 260.2
31/08 13:30 14.5 53 6.59 5 0 0 1024.3 0 15.3 23.0 32.2 84.0 72.9 249.1
31/08 13:20 13.2 59 6.77 5.4 0 0 1024.4 0 15.7 23.6 33.4 87.2 76.3 261.0
31/08 13:10 13.4 66 7.67 7.2 0 0 1024.4 0 17.6 24.9 36.8 96.2 87.6 300.5
31/08 13:00 13.5 57 6.67 5.2 2 15 1024.6 0 15.5 23.4 32.9 85.9 74.8 255.7
31/08 12:50 14.4 54 6.68 5.2 9 19 1024.6 0 15.5 23.1 32.6 85.0 74.1 253.3
31/08 12:40 14.2 57 6.96 5.8 9 20 1024.5 0 16.1 23.6 33.7 88.0 77.8 266.1
31/08 12:30 14.1 56 6.8 5.5 15 22 1024.6 0 15.7 23.4 33.2 86.5 75.9 259.4
31/08 12:20 13.6 59 6.94 5.7 15 20 1024.8 0 16.1 23.8 33.9 88.5 78.1 267.3
31/08 12:10 13.7 59 6.99 5.8 13 20 1025 0 16.2 23.8 34.1 88.9 78.7 269.2
31/08 12:00 13.5 60 7.02 5.9 9 19 1025.1 0 16.2 23.9 34.3 89.5 79.2 271.2
31/08 11:50 13.1 63 7.19 6.2 6 15 1025.3 0 16.6 24.3 35.1 91.7 81.8 280.2
31/08 11:40 12.8 64 7.17 6.2 0 0 1025.5 0 16.6 24.4 35.1 91.8 81.9 280.4
31/08 11:30 12.2 64 6.91 5.6 7 22 1025.5 0 16.0 24.1 34.4 89.8 79.2 270.8
31/08 11:20 12.4 63 6.88 5.6 0 11 1025.4 0 16.0 24.0 34.2 89.3 78.6 268.8
31/08 11:10 12.2 67 7.23 6.3 0 13 1025.3 0 16.7 24.6 35.6 93.1 83.3 285.2
31/08 11:00 11.2 66 6.69 5.1 6 24 1025.1 0 15.6 24.0 34.0 88.6 77.3 264.2
31/08 10:50 11.1 68 6.85 5.4 11 26 1025.1 0 16.0 24.3 34.6 90.4 79.5 271.8
31/08 10:40 11 68 6.81 5.3 11 28 1025.1 0 15.9 24.3 34.5 90.1 79.1 270.3
31/08 10:30 11 67 6.71 5.1 15 30 1025.2 0 15.7 24.1 34.1 89.1 77.8 265.8
31/08 10:20 11.1 68 6.85 5.4 15 33 1025.4 0 16.0 24.3 34.6 90.4 79.5 271.8
31/08 10:10 10.8 68 6.72 5.1 17 28 1025.5 0 15.7 24.2 34.3 89.4 78.1 267.0
31/08 10:00 10.7 69 6.78 5.3 15 28 1025.6 0 15.8 24.3 34.5 90.2 79.0 270.1
31/08 09:50 10.6 69 6.74 5.2 15 26 1025.7 0 15.8 24.3 34.4 89.9 78.6 268.6
31/08 09:40 10.6 71 6.93 5.6 15 30 1025.8 0 16.2 24.6 35.2 91.9 81.1 277.3
31/08 09:30 10.5 71 6.89 5.5 15 28 1025.7 0 16.1 24.5 35.1 91.6 80.7 275.8
31/08 09:20 10.3 70 6.71 5.1 13 26 1025.8 0 15.7 24.3 34.4 89.9 78.5 268.3
31/08 09:10 10.2 70 6.66 5 11 26 1025.9 0 15.6 24.3 34.3 89.5 78.0 266.4
31/08 09:00 10.2 69 6.57 4.8 9 24 1026 0 15.4 24.1 33.9 88.6 76.8 262.3
31/08 08:50 10.2 71 6.76 5.2 9 24 1026.1 0 15.8 24.4 34.7 90.6 79.3 271.0
31/08 08:40 10.2 71 6.76 5.2 9 22 1026.1 0 15.8 24.4 34.7 90.6 79.3 271.0
31/08 08:30 10.1 72 6.81 5.3 6 24 1026.1 0 15.9 24.5 34.9 91.2 80.1 273.6
31/08 08:20 10 72 6.77 5.2 6 28 1026.1 0 15.8 24.5 34.8 90.9 79.6 272.1
31/08 08:10 10.1 73 6.9 5.5 6 22 1026 0 16.1 24.7 35.3 92.2 81.2 277.7
31/08 08:00 10.1 73 6.9 5.5 2 17 1025.9 0 16.1 24.7 35.3 92.2 81.2 277.7
31/08 07:50 10 73 6.86 5.4 6 24 1025.8 0 16.0 24.6 35.2 91.9 80.8 276.2
31/08 07:40 9.9 73 6.82 5.3 0 17 1025.7 0 16.0 24.6 35.1 91.5 80.4 274.7
31/08 07:30 9.9 74 6.91 5.5 2 20 1025.8 0 16.1 24.7 35.4 92.5 81.6 278.8
31/08 07:20 9.8 74 6.87 5.4 4 22 1025.7 0 16.1 24.7 35.3 92.2 81.1 277.3
31/08 07:10 9.9 74 6.91 5.5 4 26 1025.5 0 16.1 24.7 35.4 92.5 81.5 278.8
31/08 07:00 9.7 74 6.82 5.3 6 26 1025.3 0 16.0 24.6 35.1 91.7 80.6 275.3
31/08 06:50 9.6 73 6.69 5 4 22 1025.3 0 15.7 24.4 34.6 90.5 78.9 269.6
31/08 06:40 9.6 74 6.78 5.2 4 24 1025.3 0 15.9 24.6 35.0 91.4 80.1 273.8
31/08 06:30 9.6 73 6.69 5 7 24 1025.3 0 15.7 24.4 34.6 90.5 78.9 269.6
31/08 06:20 9.5 73 6.65 4.9 7 24 1025.2 0 15.6 24.4 34.5 90.1 78.5 268.1
31/08 06:10 9.5 74 6.74 5.1 7 24 1025.1 0 15.8 24.5 34.9 91.1 79.7 272.2
31/08 06:00 9.6 72 6.6 4.8 11 26 1025.2 0 15.5 24.3 34.3 89.5 77.8 265.5
31/08 05:50 9.5 71 6.46 4.5 11 26 1025.1 0 15.2 24.1 33.8 88.1 76.0 259.4
31/08 05:40 9.5 71 6.46 4.5 6 19 1025.1 0 15.2 24.1 33.8 88.1 76.0 259.4
31/08 05:30 9.5 72 6.56 4.7 4 22 1025.1 0 15.4 24.3 34.2 89.2 77.3 264.0
31/08 05:20 9.5 72 6.56 4.7 4 24 1024.9 0 15.4 24.3 34.2 89.2 77.3 263.9
31/08 05:10 9.7 70 6.46 4.5 7 24 1024.8 0 15.2 24.0 33.7 87.9 75.8 258.7
31/08 05:00 9.6 70 6.41 4.4 4 22 1024.6 0 15.1 24.0 33.5 87.4 75.2 256.7
31/08 04:50 9.7 69 6.36 4.3 6 24 1024.6 0 15.0 23.9 33.3 86.8 74.5 254.1
31/08 04:40 9.7 69 6.36 4.3 7 28 1024.6 0 15.0 23.9 33.3 86.8 74.5 254.1
31/08 04:30 9.7 70 6.46 4.5 7 26 1024.6 0 15.2 24.0 33.7 87.9 75.8 258.6
31/08 04:20 9.8 70 6.5 4.6 9 28 1024.5 0 15.3 24.1 33.8 88.2 76.2 260.1
31/08 04:10 9.8 69 6.4 4.4 9 28 1024.5 0 15.1 23.9 33.4 87.1 74.9 255.5
31/08 04:00 9.7 70 6.46 4.5 4 24 1024.5 0 15.2 24.0 33.7 87.8 75.8 258.6
31/08 03:50 9.8 69 6.4 4.4 11 32 1024.4 0 15.1 23.9 33.4 87.1 74.9 255.5
31/08 03:40 9.8 69 6.4 4.4 4 32 1024.3 0 15.1 23.9 33.4 87.1 74.9 255.5
31/08 03:30 9.7 70 6.46 4.5 11 30 1024.4 0 15.2 24.0 33.7 87.8 75.8 258.6
31/08 03:20 9.9 68 6.35 4.3 7 26 1024.4 0 14.9 23.8 33.1 86.5 74.2 252.9
31/08 03:10 9.8 67 6.22 4.1 6 17 1024.3 0 14.7 23.6 32.7 85.2 72.6 247.4
31/08 03:00 9.8 69 6.4 4.4 7 20 1024.4 0 15.1 23.9 33.4 87.1 74.9 255.5
31/08 02:50 9.8 69 6.4 4.4 11 22 1024.4 0 15.1 23.9 33.4 87.1 74.9 255.5
31/08 02:40 9.7 72 6.64 4.9 11 26 1024.4 0 15.6 24.3 34.4 89.7 78.1 266.8
31/08 02:30 9.7 72 6.64 4.9 6 26 1024.4 0 15.6 24.3 34.4 89.7 78.1 266.8
31/08 02:20 9.7 72 6.64 4.9 7 26 1024.5 0 15.6 24.3 34.4 89.7 78.1 266.8
31/08 02:10 9.7 71 6.55 4.7 2 19 1024.6 0 15.4 24.2 34.0 88.8 77.0 262.7
31/08 02:00 9.8 71 6.59 4.8 6 26 1024.7 0 15.5 24.2 34.1 89.1 77.4 264.2
31/08 01:50 9.8 71 6.59 4.8 2 7 1024.6 0 15.5 24.2 34.1 89.1 77.4 264.2
31/08 01:40 9.9 69 6.44 4.5 9 24 1024.6 0 15.1 23.9 33.5 87.4 75.3 257.1

Last Refresh: 31-Aug-2026 17:49:31

Bureau of Meteorology